MDT,Max TemperatureF,Mean TemperatureF,Min TemperatureF,Max Dew PointF,MeanDew PointF,Min DewpointF,Max Humidity, Mean Humidity, Min Humidity, Max Sea Level PressureIn, Mean Sea Level PressureIn, Min Sea Level PressureIn, Max VisibilityMiles, Mean VisibilityMiles, Min VisibilityMiles, Max Wind SpeedMPH, Mean Wind SpeedMPH, Max Gust SpeedMPH,PrecipitationIn, CloudCover, Events, WindDirDegrees
2012-10-1,78,59,39,34,30,25,70,42,13,30.25,30.13,30.04,10,10,10,17,4,22,0.00,0,,284
2012-10-2,81,60,38,32,27,22,64,39,13,30.12,29.99,29.85,10,10,10,18,5,21,0.00,0,,254
2012-10-3,82,61,39,30,23,13,51,31,11,30.00,29.91,29.79,10,10,10,35,8,43,0.00,0,,262
2012-10-4,78,57,36,24,20,17,48,30,11,30.07,29.96,29.84,10,9,2,31,8,41,0.00,0,,260
2012-10-5,72,59,45,26,15,9,38,24,9,29.98,29.90,29.78,10,10,10,24,9,32,0.00,0,,303
2012-10-6,59,47,35,15,9,4,37,24,10,30.15,30.06,29.94,10,10,10,21,6,25,0.00,0,,310
2012-10-7,62,43,24,11,6,0,42,26,9,30.21,30.11,30.02,10,10,10,15,3,20,0.00,0,,223
2012-10-8,69,47,24,12,6,2,37,23,8,30.19,30.05,29.92,10,10,10,26,6,32,0.00,0,,233
2012-10-9,75,52,29,20,15,9,39,25,11,30.08,29.98,29.88,10,10,10,23,5,29,0.00,0,,257
2012-10-10,74,55,35,29,24,17,49,33,17,30.12,30.00,29.88,10,10,10,21,4,25,0.00,0,,197
2012-10-11,78,59,40,30,27,25,49,32,15,30.03,29.94,29.86,10,10,10,22,5,26,0.00,0,,253
2012-10-12,54,48,42,48,40,27,93,66,39,30.12,29.99,29.91,10,9,2,25,5,32,0.51,6,Rain-Thunderstorm,92
2012-10-13,47,45,42,45,41,38,93,85,76,30.32,30.13,30.02,10,10,9,12,3,15,0.10,8,Rain,263
2012-10-14,63,51,39,44,40,35,100,68,36,30.44,30.33,30.21,10,7,0,9,2,10,0.00,3,Fog,132
2012-10-15,69,52,34,38,35,31,92,58,24,30.26,30.13,29.99,10,10,10,21,4,28,0.00,0,,244
2012-10-16,70,53,35,42,35,32,92,59,25,30.04,29.86,29.66,10,10,10,28,9,36,T,2,Rain-Thunderstorm,256
2012-10-17,59,47,34,40,15,8,66,40,14,30.14,29.95,29.75,10,10,10,20,6,24,0.00,0,,284
2012-10-18,65,46,27,23,18,12,69,41,13,30.30,30.21,30.12,10,10,10,14,2,16,0.00,0,,234
2012-10-19,69,49,29,25,22,20,75,45,15,30.24,30.09,29.95,10,10,10,21,5,26,0.00,0,,212
2012-10-20,73,52,30,25,23,21,78,46,14,30.00,29.85,29.70,10,10,10,23,5,28,0.00,0,,235
2012-10-21,72,52,32,31,25,23,64,41,17,29.88,29.79,29.71,10,10,10,23,6,26,0.00,0,,243
2012-10-22,72,57,42,34,31,29,62,41,20,29.82,29.73,29.65,10,10,10,28,10,33,0.00,3,,228
2012-10-23,69,63,56,31,25,20,36,26,16,29.73,29.65,29.61,10,10,10,30,15,40,0.00,1,,228
2012-10-24,64,49,33,34,30,19,96,58,19,30.05,29.81,29.61,10,9,2,32,12,40,0.02,6,Rain-Snow,258
2012-10-25,45,36,27,32,27,24,89,69,49,30.35,30.18,30.01,10,7,0,26,4,38,0.02,6,Fog-Snow-Thunderstorm,272
2012-10-26,44,32,20,24,19,14,92,61,30,30.54,30.41,30.26,10,10,10,9,1,9,0.00,1,,217
2012-10-27,53,41,29,24,20,13,78,50,21,30.33,30.23,30.13,10,10,10,15,3,18,0.00,5,,234
2012-10-28,61,45,28,29,24,18,75,49,22,30.30,30.19,30.07,10,10,10,12,3,16,0.00,2,,220
2012-10-29,67,48,28,29,26,24,85,54,23,30.32,30.22,30.11,10,10,10,16,4,21,0.00,0,,220
2012-10-30,68,49,29,29,26,24,78,49,20,30.31,30.20,30.09,10,10,10,9,2,12,0.00,0,,136
2012-10-31,68,48,27,26,24,23,78,48,17,30.29,30.18,30.06,10,10,10,12,2,13,0.00,0,,209